(°C)
(°C)
-6°
-6°
-6°
-6°
-6°
-7°
-7°
SO
SO
SO
SO
SSO
SSO
SSO
(km/h)
18-34
16-31
15-27
15-26
17-26
21-29
22-31
(mm)
0
0
0
0
0
0
0
(%)
0
0
0
6
6
0
1

Elevación del sol

/ 3.7°
sun-icon
UV 0
08:08
16:13
Menguante (320°)
03:44
14:46

METAR a Lipetsk Airport (UUOL)

Hora Condiciones Temperatura/
Punto de condensación
Viento Visibilidad Tiempo Nubes Presión Cambiar Bruto
MVFR 0°C / -4°C 240º 10kt >10km - Broken Clouds 2300ft 993 No Significant change. Runway 15: Clear and dry, 51-100% contamination with <1mm, friction coefficient 0.60. UUOL 011200Z 24005MPS 9999 BKN023 M00/M04 Q0993 R15/090060 NOSIG
MVFR 0°C / -4°C 240º 14kt >10km - Broken Clouds 2900ft 993 No Significant change. Runway 15: Clear and dry, 51-100% contamination with <1mm, friction coefficient 0.60. UUOL 011130Z 24007MPS 9999 BKN029 M00/M04 Q0993 R15/090060 NOSIG
MVFR 0°C / -5°C 250º 14kt >10km - Broken Clouds 3000ft 993 No Significant change. Runway 15: Clear and dry, 51-100% contamination with <1mm, friction coefficient 0.60. UUOL 011100Z 25007MPS 9999 BKN030 M00/M05 Q0993 R15/090060 NOSIG
VFR 0°C / -5°C 260º 14kt >10km - Scattered Clouds 3000ft 993 No Significant change. Runway 15: Clear and dry, 51-100% contamination with <1mm, friction coefficient 0.60. UUOL 011030Z 26007MPS 9999 SCT030 00/M05 Q0993 R15/090060 NOSIG
VFR 0°C / -5°C 250º 16kt >10km - Scattered Clouds 3000ft 993 No Significant change. Runway 15: Clear and dry, 51-100% contamination with <1mm, friction coefficient 0.60. UUOL 011000Z 25008MPS 9999 SCT030 00/M05 Q0993 R15/090060 NOSIG
VFR 0°C / -6°C 250º 16kt >10km - Scattered Clouds 3000ft 993 No Significant change. Runway 15: Clear and dry, 51-100% contamination with <1mm, friction coefficient 0.60. UUOL 010930Z 25008MPS 9999 SCT030 00/M06 Q0993 R15/090060 NOSIG
VFR 0°C / -5°C 250º 14kt >10km - Scattered Clouds 4000ft 993 No Significant change. Runway 15: Clear and dry, 51-100% contamination with <1mm, friction coefficient 0.60. UUOL 010900Z 25007MPS 9999 SCT040 M00/M05 Q0993 R15/090060 NOSIG
MVFR 0°C / -4°C 250º 12kt >10km - Broken Clouds 2700ft 993 No Significant change. Runway 15: Clear and dry, 51-100% contamination with <1mm, friction coefficient 0.60. UUOL 010830Z 25006MPS 9999 BKN027 M00/M04 Q0993 R15/090060 NOSIG
VFR -1°C / -5°C 240º 10kt >10km - Broken Clouds 3800ft 993 No Significant change. Runway 15: Clear and dry, 51-100% contamination with <1mm, friction coefficient 0.60. UUOL 010800Z 24005MPS 9999 BKN038 M01/M05 Q0993 R15/090060 NOSIG
VFR -1°C / -6°C 240º 10kt >10km - Broken Clouds 3300ft 993 No Significant change. Runway 15: Clear and dry, 51-100% contamination with <1mm, friction coefficient 0.60. UUOL 010730Z 24005MPS 9999 BKN033 M01/M06 Q0993 R15/090060 NOSIG
VFR -2°C / -6°C 240º 10kt >10km - Scattered Clouds 3700ft 993 No Significant change. Runway 15: Clear and dry, 51-100% contamination with <1mm, friction coefficient 0.60. UUOL 010700Z 24005MPS 9999 SCT037 M02/M06 Q0993 R15/090060 NOSIG
VFR -3°C / -6°C 230º 8kt >10km - Clouds and Visibility OK 993 No Significant change. Runway 15: Clear and dry, 51-100% contamination with <1mm, friction coefficient 0.60. UUOL 010630Z 23004MPS CAVOK M03/M06 Q0993 R15/090060 NOSIG
VFR -3°C / -6°C 240º 10kt >10km - Clouds and Visibility OK 993 No Significant change. Runway 15: Clear and dry, 51-100% contamination with <1mm, friction coefficient 0.60. UUOL 010600Z 24005MPS CAVOK M03/M06 Q0993 R15/090060 NOSIG
VFR -3°C / -6°C 240º 10kt >10km - Clouds and Visibility OK 992 No Significant change. Runway 15: Clear and dry, 51-100% contamination with <1mm, friction coefficient 0.60. UUOL 010530Z 24005MPS CAVOK M03/M06 Q0992 R15/090060 NOSIG
VFR -3°C / -6°C 240º 10kt >10km - Clouds and Visibility OK 992 No Significant change. Runway 15: Clear and dry, 51-100% contamination with <1mm, friction coefficient 0.60. UUOL 010500Z 24005MPS CAVOK M03/M06 Q0992 R15/090060 NOSIG
VFR -3°C / -6°C 240º 10kt >10km - Clouds and Visibility OK 992 No Significant change. Runway 15: Clear and dry, 51-100% contamination with <1mm, friction coefficient 0.60. UUOL 010430Z 24005MPS CAVOK M03/M06 Q0992 R15/090060 NOSIG
VFR -3°C / -6°C 230º 10kt >10km - Clouds and Visibility OK 991 No Significant change. Runway 15: Clear and dry, 51-100% contamination with <1mm, friction coefficient 0.60. UUOL 010400Z 23005MPS CAVOK M03/M06 Q0991 R15/090060 NOSIG
VFR -2°C / -6°C 230º 12kt >10km - Clouds and Visibility OK 992 No Significant change. Runway 15: Clear and dry, 51-100% contamination with <1mm, friction coefficient 0.60. UUOL 010330Z 23006MPS CAVOK M02/M06 Q0992 R15/090060 NOSIG
VFR -2°C / -6°C 230º 12kt >10km - Clouds and Visibility OK 991 No Significant change. Runway 15: Clear and dry, 51-100% contamination with <1mm, friction coefficient 0.60. UUOL 010300Z 23006MPS CAVOK M02/M06 Q0991 R15/090060 NOSIG
VFR -3°C / -6°C 210º 8kt >10km - Clouds and Visibility OK 991 No Significant change. Runway 15: Clear and dry, 51-100% contamination with <1mm, friction coefficient 0.60. UUOL 010230Z 21004MPS CAVOK M03/M06 Q0991 R15/090060 NOSIG
VFR -3°C / -6°C 200º 8kt >10km - Clouds and Visibility OK 991 No Significant change. Runway 15: Clear and dry, 51-100% contamination with <1mm, friction coefficient 0.60. UUOL 010200Z 20004MPS CAVOK M03/M06 Q0991 R15/090060 NOSIG
VFR -3°C / -6°C 210º 8kt >10km - Clouds and Visibility OK 991 No Significant change. Runway 15: Clear and dry, 51-100% contamination with <1mm, friction coefficient 0.60. UUOL 010130Z 21004MPS CAVOK M03/M06 Q0991 R15/090060 NOSIG
VFR -2°C / -6°C 230º 8kt >10km - Clouds and Visibility OK 991 No Significant change. Runway 15: Clear and dry, 51-100% contamination with <1mm, friction coefficient 0.60. UUOL 010100Z 23004MPS CAVOK M02/M06 Q0991 R15/090060 NOSIG
VFR -1°C / -6°C 230º 8kt >10km - Clouds and Visibility OK 991 No Significant change. Runway 15: Clear and dry, 51-100% contamination with <1mm, friction coefficient 0.60. UUOL 010030Z 23004MPS CAVOK M01/M06 Q0991 R15/090060 NOSIG

MVFR

0°C / -4°C

[Más]
Viento 240º 10kt
Visibilidad >10km
Tiempo -
Nubes Broken Clouds 2300ft
Presión 993
Cambiar No Significant change. Runway 15: Clear and dry, 51-100% contamination with <1mm, friction coefficient 0.60.
Bruto UUOL 011200Z 24005MPS 9999 BKN023 M00/M04 Q0993 R15/090060 NOSIG

MVFR

0°C / -4°C

[Más]
Viento 240º 14kt
Visibilidad >10km
Tiempo -
Nubes Broken Clouds 2900ft
Presión 993
Cambiar No Significant change. Runway 15: Clear and dry, 51-100% contamination with <1mm, friction coefficient 0.60.
Bruto UUOL 011130Z 24007MPS 9999 BKN029 M00/M04 Q0993 R15/090060 NOSIG

MVFR

0°C / -5°C

[Más]
Viento 250º 14kt
Visibilidad >10km
Tiempo -
Nubes Broken Clouds 3000ft
Presión 993
Cambiar No Significant change. Runway 15: Clear and dry, 51-100% contamination with <1mm, friction coefficient 0.60.
Bruto UUOL 011100Z 25007MPS 9999 BKN030 M00/M05 Q0993 R15/090060 NOSIG

VFR

0°C / -5°C

[Más]
Viento 260º 14kt
Visibilidad >10km
Tiempo -
Nubes Scattered Clouds 3000ft
Presión 993
Cambiar No Significant change. Runway 15: Clear and dry, 51-100% contamination with <1mm, friction coefficient 0.60.
Bruto UUOL 011030Z 26007MPS 9999 SCT030 00/M05 Q0993 R15/090060 NOSIG

VFR

0°C / -5°C

[Más]
Viento 250º 16kt
Visibilidad >10km
Tiempo -
Nubes Scattered Clouds 3000ft
Presión 993
Cambiar No Significant change. Runway 15: Clear and dry, 51-100% contamination with <1mm, friction coefficient 0.60.
Bruto UUOL 011000Z 25008MPS 9999 SCT030 00/M05 Q0993 R15/090060 NOSIG

VFR

0°C / -6°C

[Más]
Viento 250º 16kt
Visibilidad >10km
Tiempo -
Nubes Scattered Clouds 3000ft
Presión 993
Cambiar No Significant change. Runway 15: Clear and dry, 51-100% contamination with <1mm, friction coefficient 0.60.
Bruto UUOL 010930Z 25008MPS 9999 SCT030 00/M06 Q0993 R15/090060 NOSIG

VFR

0°C / -5°C

[Más]
Viento 250º 14kt
Visibilidad >10km
Tiempo -
Nubes Scattered Clouds 4000ft
Presión 993
Cambiar No Significant change. Runway 15: Clear and dry, 51-100% contamination with <1mm, friction coefficient 0.60.
Bruto UUOL 010900Z 25007MPS 9999 SCT040 M00/M05 Q0993 R15/090060 NOSIG

MVFR

0°C / -4°C

[Más]
Viento 250º 12kt
Visibilidad >10km
Tiempo -
Nubes Broken Clouds 2700ft
Presión 993
Cambiar No Significant change. Runway 15: Clear and dry, 51-100% contamination with <1mm, friction coefficient 0.60.
Bruto UUOL 010830Z 25006MPS 9999 BKN027 M00/M04 Q0993 R15/090060 NOSIG

VFR

-1°C / -5°C

[Más]
Viento 240º 10kt
Visibilidad >10km
Tiempo -
Nubes Broken Clouds 3800ft
Presión 993
Cambiar No Significant change. Runway 15: Clear and dry, 51-100% contamination with <1mm, friction coefficient 0.60.
Bruto UUOL 010800Z 24005MPS 9999 BKN038 M01/M05 Q0993 R15/090060 NOSIG

VFR

-1°C / -6°C

[Más]
Viento 240º 10kt
Visibilidad >10km
Tiempo -
Nubes Broken Clouds 3300ft
Presión 993
Cambiar No Significant change. Runway 15: Clear and dry, 51-100% contamination with <1mm, friction coefficient 0.60.
Bruto UUOL 010730Z 24005MPS 9999 BKN033 M01/M06 Q0993 R15/090060 NOSIG

VFR

-2°C / -6°C

[Más]
Viento 240º 10kt
Visibilidad >10km
Tiempo -
Nubes Scattered Clouds 3700ft
Presión 993
Cambiar No Significant change. Runway 15: Clear and dry, 51-100% contamination with <1mm, friction coefficient 0.60.
Bruto UUOL 010700Z 24005MPS 9999 SCT037 M02/M06 Q0993 R15/090060 NOSIG

VFR

-3°C / -6°C

[Más]
Viento 230º 8kt
Visibilidad >10km
Tiempo -
Nubes Clouds and Visibility OK
Presión 993
Cambiar No Significant change. Runway 15: Clear and dry, 51-100% contamination with <1mm, friction coefficient 0.60.
Bruto UUOL 010630Z 23004MPS CAVOK M03/M06 Q0993 R15/090060 NOSIG

VFR

-3°C / -6°C

[Más]
Viento 240º 10kt
Visibilidad >10km
Tiempo -
Nubes Clouds and Visibility OK
Presión 993
Cambiar No Significant change. Runway 15: Clear and dry, 51-100% contamination with <1mm, friction coefficient 0.60.
Bruto UUOL 010600Z 24005MPS CAVOK M03/M06 Q0993 R15/090060 NOSIG

VFR

-3°C / -6°C

[Más]
Viento 240º 10kt
Visibilidad >10km
Tiempo -
Nubes Clouds and Visibility OK
Presión 992
Cambiar No Significant change. Runway 15: Clear and dry, 51-100% contamination with <1mm, friction coefficient 0.60.
Bruto UUOL 010530Z 24005MPS CAVOK M03/M06 Q0992 R15/090060 NOSIG

VFR

-3°C / -6°C

[Más]
Viento 240º 10kt
Visibilidad >10km
Tiempo -
Nubes Clouds and Visibility OK
Presión 992
Cambiar No Significant change. Runway 15: Clear and dry, 51-100% contamination with <1mm, friction coefficient 0.60.
Bruto UUOL 010500Z 24005MPS CAVOK M03/M06 Q0992 R15/090060 NOSIG

VFR

-3°C / -6°C

[Más]
Viento 240º 10kt
Visibilidad >10km
Tiempo -
Nubes Clouds and Visibility OK
Presión 992
Cambiar No Significant change. Runway 15: Clear and dry, 51-100% contamination with <1mm, friction coefficient 0.60.
Bruto UUOL 010430Z 24005MPS CAVOK M03/M06 Q0992 R15/090060 NOSIG

VFR

-3°C / -6°C

[Más]
Viento 230º 10kt
Visibilidad >10km
Tiempo -
Nubes Clouds and Visibility OK
Presión 991
Cambiar No Significant change. Runway 15: Clear and dry, 51-100% contamination with <1mm, friction coefficient 0.60.
Bruto UUOL 010400Z 23005MPS CAVOK M03/M06 Q0991 R15/090060 NOSIG

VFR

-2°C / -6°C

[Más]
Viento 230º 12kt
Visibilidad >10km
Tiempo -
Nubes Clouds and Visibility OK
Presión 992
Cambiar No Significant change. Runway 15: Clear and dry, 51-100% contamination with <1mm, friction coefficient 0.60.
Bruto UUOL 010330Z 23006MPS CAVOK M02/M06 Q0992 R15/090060 NOSIG

VFR

-2°C / -6°C

[Más]
Viento 230º 12kt
Visibilidad >10km
Tiempo -
Nubes Clouds and Visibility OK
Presión 991
Cambiar No Significant change. Runway 15: Clear and dry, 51-100% contamination with <1mm, friction coefficient 0.60.
Bruto UUOL 010300Z 23006MPS CAVOK M02/M06 Q0991 R15/090060 NOSIG

VFR

-3°C / -6°C

[Más]
Viento 210º 8kt
Visibilidad >10km
Tiempo -
Nubes Clouds and Visibility OK
Presión 991
Cambiar No Significant change. Runway 15: Clear and dry, 51-100% contamination with <1mm, friction coefficient 0.60.
Bruto UUOL 010230Z 21004MPS CAVOK M03/M06 Q0991 R15/090060 NOSIG

VFR

-3°C / -6°C

[Más]
Viento 200º 8kt
Visibilidad >10km
Tiempo -
Nubes Clouds and Visibility OK
Presión 991
Cambiar No Significant change. Runway 15: Clear and dry, 51-100% contamination with <1mm, friction coefficient 0.60.
Bruto UUOL 010200Z 20004MPS CAVOK M03/M06 Q0991 R15/090060 NOSIG

VFR

-3°C / -6°C

[Más]
Viento 210º 8kt
Visibilidad >10km
Tiempo -
Nubes Clouds and Visibility OK
Presión 991
Cambiar No Significant change. Runway 15: Clear and dry, 51-100% contamination with <1mm, friction coefficient 0.60.
Bruto UUOL 010130Z 21004MPS CAVOK M03/M06 Q0991 R15/090060 NOSIG

VFR

-2°C / -6°C

[Más]
Viento 230º 8kt
Visibilidad >10km
Tiempo -
Nubes Clouds and Visibility OK
Presión 991
Cambiar No Significant change. Runway 15: Clear and dry, 51-100% contamination with <1mm, friction coefficient 0.60.
Bruto UUOL 010100Z 23004MPS CAVOK M02/M06 Q0991 R15/090060 NOSIG

VFR

-1°C / -6°C

[Más]
Viento 230º 8kt
Visibilidad >10km
Tiempo -
Nubes Clouds and Visibility OK
Presión 991
Cambiar No Significant change. Runway 15: Clear and dry, 51-100% contamination with <1mm, friction coefficient 0.60.
Bruto UUOL 010030Z 23004MPS CAVOK M01/M06 Q0991 R15/090060 NOSIG

TAF a Lipetsk Airport (UUOL)

From till


From till Wind 250º 14kt. Visibility 10km or more. Broken Clouds 2000ft.
Temporarly from till Visibility 5000m. Light Showers Snow . Scattered Clouds 700ft. Broken Clouds 1600ft.

Bruto: TAF UUOL 011100Z 0112/0121 25007MPS 9999 BKN020 TEMPO 0117/0121 5000 -SHSN SCT007 BKN016CB

Imágenes actuales de satélite y lluvia para Lipetsk Airport, Rusia

El marcador de lugar se coloca en Lipetsk Airport. [Más]

La imagen de satélite en tiempo real se aprovecha de la combinación de bandas de la luz visible y de la luz infrarrojo. Como se puede detectar cambios de temperaturas atreves de la banda infrarrojo, la imagen no está escura de noche. No obstante, la niebla y las nubes bajas son apenas visibles en las imágenes infrarrojo como las diferencias de temperaturas entre el suelo y la niebla son muy pequeñas. Por eso son casi invisibles durante la noche. Las imágenes de satélite del Meteosat (Europa) son actualizados en tiempo real cada 5 minutos. Las imágenes del GOES-16/GOES-17 (América del Norte y América del Sur) y Himawari (Asia) son actualizados cada 10 minutos.

Copyright 2021 EUMETSAT / meteoblue. / Copyright 2021 meteoblue

Radar y precipitación nowcast para Lipetsk Airport

llovizna
Leve
Moderado
Fuerte
Muy fuerte
Granizo

El marcador de lugar se coloca en Lipetsk Airport. Esta animación muestra lo radar de precipitaciones hasta la última hora, así como la 1h previsión. Las lloviznas o las nevadas ligeras pueden ser invisibles para el radar. La intensidad de la precipitación está codificada por colores, que van del azul claro al naranja.